Location: Diati
(11.8376°N, 2.5966°E)
Time: 17:27:01
(UTC+00:00)

CZ-2C R/B - Pass Details

Date: 21 September 2020
Orbit: 704 x 907 km, 98.1° (Epoch: 19 October)

Event Time Altitude Azimuth Distance (km) Brightness Sun altitude
Rises 18:13:34 0° 139° (SE) 3,172 5.8 -7.6°
Reaches altitude 10° 18:16:17 10° 123° (ESE) 2,279 4.9 -8.2°
Maximum altitude 18:20:04 22° 74° (ENE) 1,659 4.2 -9.1°
Drops below altitude 10° 18:23:59 10° 25° (NNE) 2,376 5.3 -10.1°
Sets 18:26:52 0° 11° (N) 3,345 6.2 -10.8°
